Regional Weather Roundup
Issued by NWS Charleston, WV

Home | Current Version | Previous Version | Text Only | Print | Product List | Glossary Off
Versions: 1 2 3 4 5 6 7 8 9 10 11 12 13 14 15 16 17 18 19 20 21 22 23 24 25 26 27 28 29 30 31 32 33 34 35 36 37 38 39 40 41 42 43 44 45 46 47 48 49 50

000
ASUS41 KRLX 171410
RWRRLX
West Virginia Regional Weather Roundup
National Weather Service Charleston WV
900 AM EST WED DEC 17 2014

Note: "fair" indicates few or no clouds below 12,000 feet with no
significant weather and/or obstructions to visibility.

WVZ003-171500-
Northern Panhandle of West Virginia

CITY           SKY/WX    TMP DP  RH WIND       PRES   REMARKS
WHEELING       CLOUDY    34  30  85 W16G25    30.08R
$$

WVZ009-171500-
Northwest West Virginia

CITY           SKY/WX    TMP DP  RH WIND       PRES   REMARKS
PARKERSBURG    CLOUDY    35  29  78 W7G16     30.18R
$$

WVZ006-171500-
Western West Virginia

CITY           SKY/WX    TMP DP  RH WIND       PRES   REMARKS
HUNTINGTON     CLOUDY    35  32  88 W7        30.20R
$$

WVZ015-171500-
West Central West Virginia

CITY           SKY/WX    TMP DP  RH WIND       PRES   REMARKS
CHARLESTON     DRIZZLE   37  34  89 W7        30.18R
$$

WVZ022-031-171500-
North Central West Virginia

CITY           SKY/WX    TMP DP  RH WIND       PRES   REMARKS
CLARKSBURG     CLOUDY    36  31  82 W8G17     30.11R
MORGANTOWN     CLOUDY    37  29  72 W5        30.09S
$$

WVZ025-035-042-045-171500-
Southern West Virginia

CITY           SKY/WX    TMP DP  RH WIND       PRES   REMARKS
BECKLEY        CLOUDY    36  33  89 W12       30.10R
LOGAN          CLOUDY    37  36  93 VRB3      30.15S FOG
BLUEFIELD      LGT RAIN  37  33  85 W13G20    30.09R
LEWISBURG      CLOUDY    39  33  79 W6        30.08R
$$

WVZ047-171500-
Northern Mountains of West Virginia

CITY           SKY/WX    TMP DP  RH WIND       PRES   REMARKS
ELKINS         LGT RAIN  36  34  92 W10       30.08R
$$

WVZ052-171500-
Eastern Panhandle of West Virginia

CITY           SKY/WX    TMP DP  RH WIND       PRES   REMARKS
MARTINSBURG    CLOUDY    48  34  58 W7        29.99R
PETERSBURG     MOSUNNY   44  31  58 W10G23    30.01S
$$


USA.gov is the U.S. government's official web portal to all federal, state and local government web resources and services.